EMGATE Weather Reports


time (UTC)temp
C
wind
direction
speed
KPH
gust
KPH
rain 1hr
cm
rain 24hr
cm
rain mn
cm
humidity
%
barometer
mb
20260506043413 10 259 4.8 11.3 0.00 0.15 0.00 68 1006.7
20260506041913 10 238 6.4 11.3 0.00 0.15 0.00 68 1006.5
20260506040413 10 255 6.4 16.1 0.00 0.15 0.15 68 1006.1
20260506034913 11 252 6.4 11.3 0.00 0.15 0.15 69 1006.0
20260506033413 11 281 9.7 16.1 0.00 0.15 0.15 69 1005.9
20260506031913 11 250 8.0 14.5 0.00 0.15 0.15 68 1005.5
20260506030413 11 259 11.3 22.5 0.00 0.15 0.15 68 1005.6
20260506024913 11 278 9.7 19.3 0.00 0.15 0.15 68 1005.2
20260506023413 12 285 9.7 19.3 0.00 0.15 0.15 68 1004.9
20260506021913 12 252 9.7 22.5 0.00 0.15 0.15 67 1004.8
20260506020413 12 275 8.0 17.7 0.00 0.15 0.15 69 1004.6
20260506014913 12 260 4.8 12.9 0.00 0.15 0.15 69 1004.4
20260506013413 12 203 8.0 16.1 0.00 0.15 0.15 67 1004.3
20260506011913 13 276 4.8 19.3 0.00 0.15 0.15 67 1003.9
20260506010413 13 264 4.8 9.7 0.00 0.15 0.15 63 1003.5
20260506004913 14 220 4.8 9.7 0.00 0.15 0.15 62 1002.9
20260506003413 14 226 8.0 12.9 0.00 0.15 0.15 62 1003.0
20260506001913 15 296 9.7 22.5 0.00 0.15 0.15 61 1003.0
20260506000413 15 274 9.7 19.3 0.00 0.15 0.15 64 1002.9
20260505234913 15 283 4.8 8.0 0.00 0.15 0.15 66 1002.4
20260505233413 15 274 4.8 9.7 0.00 0.15 0.15 64 1002.1
20260505231913 15 285 4.8 11.3 0.00 0.15 0.15 63 1001.7
20260505230413 16 285 6.4 11.3 0.00 0.15 0.15 63 1001.6
20260505224913 16 282 9.7 24.1 0.00 0.15 0.15 63 1001.7
20260505223413 16 269 9.7 19.3 0.00 0.15 0.15 65 1001.0
20260505221913 16 270 9.7 16.1 0.00 0.15 0.15 68 1000.8
20260505220413 16 251 3.2 16.1 0.00 0.15 0.15 70 1000.5
20260505214913 16 252 8.0 14.5 0.00 0.15 0.15 70 1000.3
20260505213413 16 277 8.0 14.5 0.00 0.15 0.15 71 1000.2
20260505211913 16 259 8.0 14.5 0.00 0.15 0.15 71 999.9
20260505210413 16 235 9.7 29.0 0.00 0.15 0.15 72 999.4
20260505204913 16 287 9.7 22.5 0.00 0.15 0.15 71 999.2
20260505203413 17 330 19.3 30.6 0.00 0.15 0.15 69 999.0
20260505201913 19 233 12.9 37.0 0.00 0.15 0.15 60 998.2
20260505200413 20 207 12.9 27.4 0.00 0.15 0.15 59 998.0
20260505194913 20 221 12.9 25.7 0.00 0.15 0.15 59 997.8
20260505193413 20 240 14.5 20.9 0.00 0.15 0.15 57 997.6
20260505191913 21 270 14.5 30.6 0.00 0.15 0.15 58 997.6
20260505190413 20 234 12.9 33.8 0.00 0.15 0.15 60 997.7
20260505184913 21 201 11.3 25.7 0.00 0.15 0.15 59 997.7
20260505183413 21 225 9.7 22.5 0.00 0.15 0.15 61 997.9
20260505181913 20 206 8.0 14.5 0.00 0.15 0.15 61 998.1
20260505180413 19 220 8.0 17.7 0.00 0.15 0.15 65 998.3
20260505174913 18 219 4.8 14.5 0.00 0.15 0.15 71 998.4
20260505173413 16 220 1.6 6.4 0.00 0.15 0.15 76 998.5
20260505171913 15 239 3.2 8.0 0.03 0.15 0.15 78 998.6
20260505170413 13 233 0.0 4.8 0.03 0.15 0.15 82 998.8
20260505164913 13 229 0.0 3.2 0.03 0.15 0.15 82 999.3
20260505163413 13 228 1.6 3.2 0.03 0.15 0.15 81 999.7
20260505161913 13 287 0.0 3.2 0.13 0.13 0.13 81 999.8
20260505160413 13 288 1.6 4.8 0.13 0.13 0.13 81 999.8
20260505151913 15 279 6.4 12.9 0.00 0.00 0.00 72 1000.6
20260505150413 16 248 6.4 14.5 0.00 0.00 0.00 69 1000.4
20260505140413 16 222 6.4 12.9 0.00 0.00 0.00 69 1000.3
20260505124913 11 1 0.0 0.0 0.00 0.18 0.00 74 1000.6
20260505123413 10 1 0.0 0.0 0.00 0.18 0.00 75 1000.6
20260505121914 9 1 0.0 0.0 0.00 0.61 0.00 78 1000.7
20260505120413 8 1 0.0 0.0 0.00 0.61 0.00 81 1000.7
20260505114913 7 1 1.6 3.2 0.00 0.61 0.00 83 1000.6
20260505113413 6 1 0.0 0.0 0.00 0.61 0.00 85 1000.9
20260505112004 6 1 0.0 0.0 0.00 0.81 0.00 87 1001.1
20260505111913 6 1 0.0 0.0 0.00 0.81 0.00 87 1001.1
20260505110413 5 1 1.6 4.8 0.00 0.81 0.00 88 1001.1
20260505101913 3 1 0.0 0.0 0.00 0.81 0.00 88 1000.8
20260505100413 3 1 0.0 0.0 0.00 0.81 0.00 87 1001.0
20260505094913 3 1 0.0 0.0 0.00 0.81 0.00 87 1001.0
20260505093413 3 1 1.6 3.2 0.00 0.81 0.00 87 1001.3
20260505091913 4 18 1.6 4.8 0.00 0.81 0.00 87 1001.1
20260505090413 4 359 1.6 3.2 0.00 0.81 0.00 87 1001.2
20260505084913 4 359 0.0 3.2 0.00 0.81 0.00 87 1001.2
20260505083413 5 359 1.6 3.2 0.00 0.81 0.00 86 1001.3
20260505081913 5 50 1.6 3.2 0.00 0.81 0.00 86 1001.4
20260505080414 5 69 0.0 4.8 0.00 0.81 0.00 86 1001.5
20260505074914 5 25 0.0 4.8 0.00 0.81 0.00 85 1001.6
20260505073414 5 41 1.6 3.2 0.00 0.81 0.00 85 1001.5
20260505071914 5 77 0.0 6.4 0.00 0.81 0.00 85 1001.6
20260505070414 5 65 1.6 4.8 0.00 0.81 0.00 85 1001.7
20260505064914 6 77 1.6 4.8 0.00 0.81 0.00 85 1001.9
20260505063414 6 41 1.6 4.8 0.00 0.81 0.00 84 1001.9
20260505061914 6 44 1.6 4.8 0.00 0.81 0.00 84 1001.9
20260505060414 6 59 1.6 3.2 0.00 0.81 0.00 84 1002.1
20260505054914 6 30 1.6 0.0 0.00 0.81 0.00 83 1002.2
20260505053414 6 359 3.2 6.4 0.00 0.81 0.00 83 1002.4
20260505051914 7 30 3.2 6.4 0.00 0.81 0.00 83 1002.3
20260505050414 7 44 1.6 3.2 0.00 0.81 0.00 83 1002.3